Morris, IL

8:26 PM CST on February 24, 2018 (GMT -0600)
Morris

Weather History for KC09 - March, 2013

Change the Weather History Date:

Friday, March 8, 2013

  Actual Average (KARR) Record (KARR)
Temperature  
Mean Temperature 26 °F -  
Max Temperature 38 °F 37 °F 76 °F (2000)
Min Temperature 15 °F 20 °F 5 °F (2013)
Degree Days  
Heating Degree Days 38    
Moisture  
Dew Point 25 °F    
Average Humidity 84    
Maximum Humidity 100    
Minimum Humidity 62    
Precipitation  
Precipitation 0.00 in - - ()
Sea Level Pressure  
Sea Level Pressure 30.40 in    
Wind  
Wind Speed 4 mph (ESE)    
Max Wind Speed 14 mph    
Max Gust Speed 17 mph    
Visibility 7 miles    
Events Fog    
Averages and records for this station are not official NWS values.
T = Trace of Precipitation, MM = Missing Value Source: NWS Daily Summary

Daily Weather History Graph

Daily Weather History Graph

Search for Another Location

Airport or City:

Trip Planner

Search our weather history database for the weather conditions in past years. The results will help you decide how hot, cold, wet, or windy it might be!

Date:

Astronomy

Mar. 08, 2013 Rise Set
Actual Time 6:16 AM CST 5:52 PM CST
Civil Twilight 5:49 AM CST 6:20 PM CST
Nautical Twilight 5:17 AM CST 6:52 PM CST
Astronomical Twilight 4:44 AM CST 7:24 PM CST
Moon 4:02 AM CST (3/8) 2:46 PM CST (3/8)
Length of Visible Light 12h 31m
Length of Day
11h 36m
Waning Crescent, 11% of the Moon is Illuminated
Mar 8
Waning Crescent
Mar 11
New
Mar 19
First Quarter
Mar 27
Full
Apr 2
Last Quarter

Hourly Weather History & Observations

Time (CST) Temp. Windchill Dew Point Humidity Pressure Visibility Wind Dir Wind Speed Gust Speed Precip Events Conditions
12:15 AM 22.6 °F 16.5 °F 20.7 °F 92% 30.42 in 7.0 mi NNE 4.6 mph - N/A   Clear
12:35 AM 24.1 °F - 21.9 °F 91% 30.41 in 7.0 mi Calm Calm - N/A   Clear
12:55 AM 23.5 °F - 20.8 °F 89% 30.42 in 7.0 mi Calm Calm - N/A   Clear
1:15 AM 21.2 °F - 20.8 °F 99% 30.43 in 5.0 mi Calm Calm - N/A   Clear
1:35 AM 18.9 °F - 16.9 °F 92% 30.43 in 5.0 mi Calm Calm - N/A   Clear
1:55 AM 19.6 °F 14.5 °F 19.6 °F 100% 30.43 in 4.0 mi NNE 3.5 mph - N/A   Clear
2:15 AM 16.9 °F - 16.9 °F 100% 30.44 in 3.0 mi Calm Calm - N/A   Clear
2:35 AM 17.8 °F 12.5 °F 17.8 °F 100% 30.43 in 3.0 mi North 3.5 mph - N/A   Clear
2:55 AM 22.3 °F 17.6 °F 22.3 °F 100% 30.42 in 5.0 mi NE 3.5 mph - N/A   Clear
3:15 AM 21.4 °F 16.6 °F 21.4 °F 100% 30.41 in 4.0 mi NE 3.5 mph - N/A   Clear
3:35 AM 19.0 °F 11.1 °F 19.0 °F 100% 30.41 in 3.0 mi NE 5.8 mph - N/A   Clear
3:55 AM 17.8 °F 12.5 °F 17.8 °F 100% 30.43 in 3.0 mi ENE 3.5 mph - N/A   Clear
4:15 AM 17.6 °F 12.3 °F 17.6 °F 100% 30.43 in 3.0 mi East 3.5 mph - N/A   Clear
4:35 AM 15.8 °F - 15.6 °F 99% 30.44 in 3.0 mi Calm Calm - N/A   Clear
4:55 AM 16.5 °F - 16.5 °F 100% 30.44 in 3.0 mi Calm Calm - N/A   Clear
5:15 AM 18.7 °F - 18.7 °F 100% 30.44 in 3.0 mi Calm Calm - N/A   Clear
5:35 AM 19.0 °F - 19.0 °F 100% 30.44 in 2.5 mi Calm Calm - N/A   Clear
5:55 AM 18.9 °F - 18.9 °F 100% 30.44 in 2.0 mi Calm Calm - N/A   Clear
6:15 AM 17.8 °F - 17.8 °F 100% 30.45 in 1.5 mi Calm Calm - N/A   Mist
6:35 AM 16.5 °F - 16.5 °F 100% 30.46 in 1.8 mi Calm Calm - N/A   Mist
6:55 AM 16.7 °F - 16.7 °F 100% 30.45 in 1.2 mi Calm Calm - N/A   Mist
7:15 AM 19.6 °F - 19.6 °F 100% 30.46 in 0.2 mi Calm Calm - N/A Fog Light Freezing Fog
7:35 AM 21.6 °F - 21.6 °F 100% 30.46 in 0.2 mi Calm Calm - N/A Fog Light Freezing Fog
7:55 AM 22.5 °F - 22.5 °F 100% 30.46 in 0.2 mi Calm Calm - N/A Fog Light Freezing Fog
8:15 AM 23.4 °F - 23.4 °F 100% 30.46 in 0.2 mi Calm Calm - N/A Fog Light Freezing Fog
8:35 AM 26.6 °F - 26.6 °F 100% 30.47 in 0.2 mi Calm Calm - N/A Fog Light Freezing Fog
8:55 AM 26.4 °F - 26.4 °F 100% 30.47 in 0.2 mi Calm Calm - N/A Fog Light Freezing Fog
9:15 AM 27.1 °F - 27.1 °F 100% 30.47 in 0.2 mi Calm Calm - N/A Fog Light Freezing Fog
9:35 AM 28.2 °F 24.4 °F 28.2 °F 100% 30.46 in 2.5 mi ENE 3.5 mph - N/A   Scattered Clouds
9:55 AM 29.8 °F 26.3 °F 29.8 °F 100% 30.47 in 5.0 mi ENE 3.5 mph - N/A   Clear
10:15 AM 31.8 °F - 31.5 °F 99% 30.46 in 7.0 mi Calm Calm - N/A   Clear
10:35 AM 35.6 °F 28.0 °F 27.3 °F 72% 30.46 in 10.0 mi SE 10.4 mph - N/A   Clear
10:55 AM 36.1 °F 29.3 °F 26.4 °F 68% 30.46 in 10.0 mi SE 9.2 mph - N/A   Clear
11:15 AM 36.9 °F 28.7 °F 26.4 °F 66% 30.46 in 10.0 mi SSE 12.7 mph - N/A   Clear
11:35 AM 37.4 °F 30.8 °F 27.0 °F 66% 30.46 in 10.0 mi SSE 9.2 mph - N/A   Clear
11:55 AM 37.4 °F 29.3 °F 26.1 °F 64% 30.45 in 10.0 mi SSE 12.7 mph - N/A   Clear
12:15 PM 37.4 °F 28.9 °F 26.1 °F 64% 30.43 in 10.0 mi SSE 13.8 mph 17.3 mph N/A   Clear
12:35 PM 37.4 °F 29.8 °F 25.5 °F 62% 30.42 in 10.0 mi SSE 11.5 mph - N/A   Clear
12:55 PM 37.6 °F 30.0 °F 26.4 °F 64% 30.41 in 10.0 mi South 11.5 mph - N/A   Clear
1:15 PM 38.1 °F 31.7 °F 27.0 °F 64% 30.40 in 10.0 mi SSE 9.2 mph - N/A   Clear
1:35 PM 38.3 °F 31.4 °F 26.6 °F 63% 30.39 in 10.0 mi SSE 10.4 mph - N/A   Clear
1:55 PM 38.3 °F 32.5 °F 27.0 °F 64% 30.39 in 10.0 mi SSE 8.1 mph - N/A   Clear
2:15 PM 38.3 °F 31.4 °F 27.5 °F 65% 30.39 in 10.0 mi South 10.4 mph - N/A   Clear
2:35 PM 37.9 °F 31.5 °F 28.0 °F 68% 30.39 in 10.0 mi South 9.2 mph - N/A   Clear
2:55 PM 37.9 °F 32.7 °F 28.4 °F 69% 30.38 in 10.0 mi SSE 6.9 mph - N/A   Clear
3:15 PM 38.3 °F 32.5 °F 28.2 °F 67% 30.36 in 10.0 mi SE 8.1 mph - N/A   Clear
3:35 PM 38.1 °F 32.3 °F 28.0 °F 67% 30.36 in 10.0 mi SE 8.1 mph - N/A   Clear
3:55 PM 37.8 °F 31.8 °F 28.2 °F 68% 30.36 in 10.0 mi SE 8.1 mph - N/A   Clear
4:15 PM 37.8 °F 31.8 °F 27.0 °F 65% 30.36 in 10.0 mi SE 8.1 mph - N/A   Clear
4:35 PM 37.9 °F 32.7 °F 27.5 °F 66% 30.37 in 10.0 mi SE 6.9 mph - N/A   Clear
4:55 PM 37.6 °F 32.3 °F 27.9 °F 68% 30.36 in 10.0 mi SE 6.9 mph - N/A   Clear
5:15 PM 36.1 °F 32.3 °F 28.2 °F 73% 30.37 in 10.0 mi NNE 4.6 mph - N/A   Clear
5:35 PM 35.1 °F 31.0 °F 28.4 °F 77% 30.36 in 10.0 mi ESE 4.6 mph - N/A   Clear
5:55 PM 34.2 °F 29.0 °F 28.4 °F 79% 30.37 in 10.0 mi ESE 5.8 mph - N/A   Clear
6:15 PM 33.8 °F 28.6 °F 28.4 °F 81% 30.37 in 10.0 mi East 5.8 mph - N/A   Clear
6:35 PM 33.8 °F 27.7 °F 28.4 °F 81% 30.36 in 10.0 mi East 6.9 mph - N/A   Clear
6:55 PM 33.8 °F 27.7 °F 27.3 °F 77% 30.36 in 10.0 mi East 6.9 mph - N/A   Clear
7:15 PM 33.4 °F 28.1 °F 27.3 °F 78% 30.36 in 10.0 mi ESE 5.8 mph - N/A   Clear
7:35 PM 32.7 °F 27.3 °F 27.1 °F 80% 30.37 in 10.0 mi SE 5.8 mph - N/A   Clear
7:55 PM 32.4 °F 27.9 °F 27.1 °F 81% 30.36 in 10.0 mi ESE 4.6 mph - N/A   Clear
8:15 PM 32.9 °F 29.8 °F 27.3 °F 80% 30.36 in 10.0 mi ESE 3.5 mph - N/A   Clear
8:35 PM 32.5 °F 28.1 °F 27.3 °F 81% 30.36 in 10.0 mi ESE 4.6 mph - N/A   Clear
8:55 PM 32.0 °F 26.4 °F 27.3 °F 83% 30.35 in 10.0 mi East 5.8 mph - N/A   Clear
9:15 PM 32.2 °F 25.0 °F 27.1 °F 82% 30.34 in 10.0 mi East 8.1 mph - N/A   Clear
9:35 PM 33.8 °F 25.3 °F 26.6 °F 75% 30.33 in 10.0 mi ESE 11.5 mph - N/A   Clear
9:55 PM 33.8 °F 24.8 °F 27.3 °F 77% 30.32 in 10.0 mi ESE 12.7 mph - N/A   Clear
10:15 PM 33.4 °F 25.4 °F 27.1 °F 78% 30.31 in 10.0 mi ESE 10.4 mph - N/A   Clear
10:35 PM 33.1 °F 25.5 °F 27.0 °F 78% 30.31 in 10.0 mi ESE 9.2 mph - N/A   Clear
10:55 PM 32.4 °F 26.0 °F 27.0 °F 80% 30.30 in 10.0 mi SE 6.9 mph - N/A   Clear
11:15 PM 32.9 °F 24.7 °F 27.3 °F 80% 30.29 in 10.0 mi ESE 10.4 mph - N/A   Clear
11:35 PM 33.6 °F 27.5 °F 27.5 °F 78% 30.29 in 10.0 mi SE 6.9 mph - N/A   Clear
11:55 PM 33.1 °F 26.1 °F 27.3 °F 79% 30.30 in 10.0 mi SE 8.1 mph - N/A   Clear